Location: Bli��� Lhota
(48.7570°N, 14.0120°E)
Time: 23:16:59
(UTC+00:00)

ATLAS 3B R/B - Pass Details

Date: 18 September 2020
Orbit: 1016 x 1179 km, 63.8° (Epoch: 28 October)

Event Time Altitude Azimuth Distance (km) Brightness Sun altitude
Rises 19:31:34 0° 317° (NW) 3,811 6.9 -23.0°
Reaches altitude 10° 19:34:18 10° 323° (NW) 2,874 5.9 -23.4°
Maximum altitude 19:40:50 47° 37° (NE) 1,401 3.2 -24.3°
Enters shadow 19:42:49 38° 79° (ENE) 1,607 3.3 -24.6°
